KI5UDF Weather Reports


time (UTC)temp
F
wind
direction
speed
knots
gust
knots
rain 1hr
in
rain 24hr
in
rain mn
in
humidity
%
barometer
mb
20260506025532 49 41 9.6 16.5 0.00 0.00 0.00 79 1011.4
20260506025027 49 44 8.7 15.6 0.00 0.00 0.00 79 1011.5
20260506024547 49 5 7.0 15.6 0.00 0.00 0.00 79 1011.3
20260506024029 49 17 9.6 15.6 0.00 0.00 0.00 79 1011.1
20260506023527 49 31 9.6 19.1 0.00 0.00 0.00 79 1010.9
20260506023038 49 22 10.4 19.1 0.00 0.00 0.00 79 1010.7
20260506022532 50 350 11.3 17.4 0.00 0.00 0.00 80 1010.7
20260506022027 50 42 7.8 13.0 0.00 0.00 0.00 80 1010.7
20260506021540 50 32 7.0 15.6 0.00 0.00 0.00 80 1010.9
20260506021030 50 19 7.8 16.5 0.00 0.00 0.00 80 1010.6
20260506020529 50 20 10.4 16.5 0.00 0.00 0.00 80 1010.5
20260506020040 50 30 9.6 19.1 0.00 0.00 0.00 79 1010.5
20260506015528 50 22 11.3 19.1 0.00 0.00 0.00 79 1010.6
20260506015030 50 36 11.3 18.2 0.00 0.00 0.00 79 1010.5
20260506014538 50 341 11.3 18.2 0.00 0.00 0.00 79 1010.2
20260506014027 50 23 10.4 17.4 0.00 0.00 0.00 79 1010.3
20260506013527 50 26 12.2 17.4 0.00 0.00 0.00 79 1010.5
20260506013038 50 352 8.7 16.5 0.00 0.00 0.00 78 1010.4
20260506012527 50 35 7.0 16.5 0.00 0.00 0.00 78 1010.3
20260506012028 50 31 9.6 19.1 0.00 0.00 0.00 78 1010.1
20260506011602 50 38 10.4 19.1 0.00 0.00 0.00 77 1010.1
20260506011027 51 12 11.3 19.1 0.00 0.00 0.00 76 1009.9
20260506010530 51 21 7.8 14.8 0.00 0.00 0.00 76 1010.0
20260506010041 51 19 7.8 14.8 0.00 0.00 0.00 76 1009.9
20260506005529 51 28 8.7 14.8 0.00 0.00 0.00 75 1009.7
20260506005029 51 36 8.7 14.8 0.00 0.00 0.00 75 1009.7
20260506004556 51 5 7.8 14.8 0.00 0.00 0.00 75 1009.8
20260506004028 51 344 8.7 16.5 0.00 0.00 0.00 75 1009.4
20260506003530 51 352 9.6 16.5 0.00 0.00 0.00 75 1009.2
20260506003038 51 46 8.7 15.6 0.00 0.00 0.00 75 1009.1
20260506002530 52 344 8.7 17.4 0.00 0.00 0.00 75 1009.2
20260506002031 52 25 9.6 17.4 0.00 0.00 0.00 75 1009.1
20260506001545 52 38 7.8 14.8 0.00 0.00 0.00 75 1009.3
20260506001030 52 330 7.8 17.4 0.00 0.00 0.00 76 1009.1
20260506000529 52 13 8.7 17.4 0.00 0.00 0.00 76 1009.0
20260506000110 52 33 11.3 17.4 0.00 0.00 0.00 76 1008.9
20260505235529 52 337 9.6 14.8 0.00 0.00 0.00 75 1009.0
20260505235030 52 14 7.8 14.8 0.00 0.00 0.00 76 1009.2
20260505234546 52 352 7.8 14.8 0.00 0.00 0.00 76 1009.1
20260505234031 53 360 8.7 14.8 0.00 0.00 0.00 75 1008.9
20260505233532 53 22 8.7 14.8 0.00 0.00 0.00 75 1008.9
20260505233038 53 318 7.8 14.8 0.00 0.00 0.00 76 1008.8
20260505232529 53 15 7.0 16.5 0.00 0.00 0.00 75 1009.0
20260505232029 53 360 8.7 16.5 0.00 0.00 0.00 75 1009.1
20260505231538 53 340 10.4 16.5 0.00 0.00 0.00 75 1008.8
20260505231031 53 16 8.7 14.8 0.00 0.00 0.00 75 1009.1
20260505230530 53 19 7.8 14.8 0.00 0.00 0.00 75 1008.8
20260505230100 53 21 7.0 14.8 0.00 0.00 0.00 75 1008.9
20260505225530 53 15 7.8 15.6 0.00 0.00 0.00 75 1008.8
20260505225030 53 34 8.7 15.6 0.00 0.00 0.00 75 1009.0
20260505224542 53 23 7.0 15.6 0.00 0.00 0.00 76 1008.7
20260505224030 53 30 9.6 15.6 0.00 0.00 0.00 75 1008.7
20260505223529 53 28 8.7 15.6 0.00 0.00 0.00 76 1008.6
20260505223039 53 20 10.4 15.6 0.00 0.00 0.00 75 1008.8
20260505222530 54 25 8.7 16.5 0.00 0.00 0.00 75 1008.9
20260505222029 54 29 9.6 16.5 0.00 0.00 0.00 75 1008.8
20260505221538 54 360 7.8 16.5 0.00 0.00 0.00 75 1008.7
20260505221030 54 300 9.6 16.5 0.00 0.00 0.00 74 1008.6
20260505220530 54 346 8.7 16.5 0.00 0.00 0.00 74 1008.5
20260505220045 54 360 8.7 16.5 0.00 0.00 0.00 74 1008.5
20260505215532 55 360 8.7 16.5 0.00 0.00 0.00 75 1008.2
20260505215028 55 24 8.7 14.8 0.00 0.00 0.00 75 1007.9
20260505214540 55 31 8.7 14.8 0.00 0.00 0.00 75 1007.7
20260505214027 55 18 8.7 13.9 0.00 0.00 0.00 75 1007.8
20260505213527 54 30 7.8 13.9 0.00 0.00 0.00 76 1007.8
20260505213040 54 352 8.7 13.9 0.00 0.00 0.00 77 1007.9
20260505212527 54 323 7.0 13.9 0.00 0.00 0.00 77 1008.1
20260505212027 54 41 8.7 13.9 0.00 0.00 0.00 77 1007.9
20260505211544 54 18 7.8 16.5 0.00 0.00 0.00 77 1008.1
20260505211027 54 5 8.7 16.5 0.00 0.00 0.00 77 1008.3
20260505210528 54 9 10.4 16.5 0.00 0.00 0.00 78 1007.6
20260505210045 54 336 6.1 17.4 0.00 0.00 0.00 79 1007.5
20260505205530 54 336 9.6 17.4 0.00 0.00 0.00 78 1007.6
20260505205030 54 355 10.4 20.0 0.00 0.00 0.00 78 1007.5
20260505204549 55 23 11.3 20.0 0.00 0.00 0.00 79 1007.5
20260505204027 55 27 11.3 20.0 0.00 0.00 0.00 79 1007.5
20260505203528 55 23 8.7 18.2 0.00 0.00 0.00 79 1007.3
20260505203053 55 5 10.4 18.2 0.00 0.00 0.00 79 1007.2
20260505202527 55 341 10.4 20.0 0.00 0.00 0.00 79 1007.1
20260505202027 55 352 10.4 20.0 0.00 0.00 0.00 79 1007.3
20260505201546 55 15 9.6 18.2 0.00 0.00 0.00 79 1007.6
20260505201029 56 319 9.6 18.2 0.00 0.00 0.00 78 1007.8
20260505200531 56 51 7.8 16.5 0.00 0.00 0.00 78 1007.5
20260505200038 56 323 8.7 16.5 0.00 0.00 0.00 78 1007.3
20260505195526 56 330 8.7 14.8 0.00 0.00 0.00 78 1007.4
20260505195027 56 339 7.8 15.6 0.00 0.00 0.00 78 1007.4
20260505194552 57 360 10.4 19.1 0.00 0.00 0.00 77 1007.0
20260505194028 57 34 8.7 20.0 0.00 0.00 0.00 77 1006.8
20260505193527 57 20 10.4 20.0 0.00 0.00 0.00 77 1006.7
20260505193038 57 345 12.2 20.0 0.00 0.00 0.00 77 1006.6
20260505192527 57 360 8.7 16.5 0.00 0.00 0.00 77 1006.6
20260505192027 57 13 9.6 16.5 0.00 0.00 0.00 78 1006.9
20260505191552 57 352 9.6 16.5 0.00 0.00 0.00 78 1007.0
20260505191028 57 355 8.7 19.1 0.00 0.00 0.00 78 1006.9
20260505190531 57 333 7.8 19.1 0.00 0.00 0.00 78 1006.8
20260505190043 57 20 11.3 20.0 0.00 0.00 0.00 78 1006.7
20260505185527 57 342 11.3 20.0 0.00 0.00 0.00 79 1006.3
20260505185029 57 5 11.3 20.0 0.00 0.00 0.00 78 1006.1
20260505184540 57 5 10.4 20.0 0.00 0.00 0.00 79 1006.5
20260505184029 58 335 10.4 18.2 0.00 0.00 0.00 78 1006.6
20260505183529 58 337 11.3 17.4 0.00 0.00 0.00 78 1006.7
20260505183040 58 67 7.8 16.5 0.00 0.00 0.00 79 1006.7
20260505182527 58 338 9.6 16.5 0.00 0.00 0.00 79 1006.5
20260505182027 58 12 9.6 17.4 0.00 0.00 0.00 80 1006.4
20260505181539 58 360 10.4 17.4 0.00 0.00 0.00 79 1006.4
20260505181028 58 11 9.6 18.2 0.00 0.00 0.00 79 1006.2
20260505180529 58 343 7.8 18.2 0.00 0.00 0.00 79 1006.0
20260505180046 58 325 9.6 19.1 0.00 0.00 0.00 79 1006.1
20260505175527 58 311 8.7 19.1 0.00 0.00 0.00 81 1005.9
20260505175027 59 348 9.6 17.4 0.00 0.00 0.00 81 1005.8
20260505174541 59 343 10.4 20.0 0.00 0.00 0.00 81 1005.7
20260505174029 59 360 12.2 20.0 0.00 0.00 0.00 81 1005.6
20260505173531 59 347 12.2 20.0 0.00 0.00 0.00 80 1005.6
20260505173307 59 360 11.3 19.1 0.00 0.00 0.00 79 1005.5
20260505172529 60 360 9.6 17.4 0.00 0.00 0.00 79 1005.7
20260505172027 60 5 8.7 17.4 0.00 0.00 0.00 80 1005.7
20260505171556 60 317 8.7 20.0 0.00 0.00 0.00 79 1005.6
20260505171027 60 321 9.6 20.9 0.00 0.00 0.00 79 1005.5
20260505170527 60 344 12.2 20.9 0.00 0.00 0.00 78 1005.3
20260505170037 61 355 9.6 20.0 0.00 0.00 0.00 78 1005.1
20260505165527 61 26 12.2 21.7 0.00 0.00 0.00 77 1004.8
20260505165027 61 319 10.4 21.7 0.00 0.00 0.00 78 1004.8
20260505164542 62 298 13.0 21.7 0.00 0.00 0.00 77 1004.7
20260505164027 62 355 13.0 21.7 0.00 0.00 0.00 77 1004.5
20260505163527 63 315 11.3 21.7 0.00 0.00 0.00 77 1004.2
20260505163041 64 313 10.4 22.6 0.00 0.00 0.00 78 1004.1
20260505162526 64 303 13.0 22.6 0.00 0.00 0.00 77 1004.0
20260505162028 65 309 13.0 20.0 0.00 0.00 0.00 76 1004.0
20260505161538 66 28 13.0 20.0 0.00 0.00 0.00 76 1003.7
20260505161030 66 309 11.3 21.7 0.00 0.00 0.00 76 1003.5
20260505160529 67 332 10.4 23.5 0.00 0.00 0.00 75 1003.3
20260505153044 73 253 2.6 5.2 0.00 0.00 0.00 71 1002.0
20260505152527 73 279 1.7 6.1 0.00 0.00 0.00 71 1002.1
20260505152030 73 238 2.6 6.1 0.00 0.00 0.00 72 1001.9
20260505151540 73 249 1.7 4.3 0.00 0.00 0.00 72 1001.9
20260505151030 73 303 0.9 4.3 0.00 0.00 0.00 71 1001.9
20260505150530 73 288 0.9 2.6 0.00 0.00 0.00 72 1001.9
20260505140528 72 248 3.5 7.0 0.00 0.00 0.00 74 1001.3
20260505125030 70 229 3.5 10.4 0.00 0.00 0.00 78 1000.6
20260505124559 70 175 3.5 10.4 0.00 0.00 0.00 78 1000.5
20260505124027 70 200 5.2 11.3 0.00 0.00 0.00 78 1000.5
20260505123529 70 206 5.2 11.3 0.00 0.00 0.00 78 1000.4
20260505123100 70 173 6.1 13.0 0.00 0.00 0.00 79 1000.3
20260505122529 70 220 7.0 13.0 0.00 0.00 0.00 79 1000.1
20260505122030 70 206 7.8 16.5 0.00 0.00 0.00 79 999.9
20260505121610 70 202 8.7 16.5 0.00 0.00 0.00 79 999.7
20260505121030 70 165 9.6 16.5 0.00 0.00 0.00 79 999.6
20260505120526 70 165 9.6 19.1 0.00 0.00 0.00 78 999.5
20260505120038 70 198 9.6 19.1 0.00 0.00 0.00 78 999.5
20260505115530 70 184 11.3 18.2 0.00 0.00 0.00 78 999.5
20260505115029 70 200 8.7 19.1 0.00 0.00 0.00 78 999.5
20260505114538 70 173 9.6 19.1 0.00 0.00 0.00 78 999.5
20260505114029 70 225 10.4 16.5 0.00 0.00 0.00 78 999.3
20260505113526 70 219 9.6 20.9 0.00 0.00 0.00 78 999.2
20260505113046 70 190 12.2 20.9 0.00 0.00 0.00 77 999.1
20260505112530 70 215 10.4 16.5 0.00 0.00 0.00 77 999.2
20260505112027 70 191 12.2 16.5 0.00 0.00 0.00 77 999.1
20260505111545 70 208 9.6 16.5 0.00 0.00 0.00 77 999.0
20260505111027 70 184 10.4 16.5 0.00 0.00 0.00 77 999.0
20260505110530 71 205 8.7 16.5 0.00 0.00 0.00 76 999.1
20260505102030 71 203 10.4 17.4 0.00 0.00 0.00 76 999.1
20260505101543 71 183 8.7 17.4 0.00 0.00 0.00 76 999.0
20260505101030 71 178 9.6 15.6 0.00 0.00 0.00 76 999.0
20260505100527 71 198 10.4 17.4 0.00 0.00 0.00 76 998.9
20260505100054 71 200 10.4 18.2 0.00 0.00 0.00 76 998.9
20260505095526 71 220 9.6 18.2 0.00 0.00 0.00 76 998.8
20260505095029 71 200 9.6 19.1 0.00 0.00 0.00 76 998.9
20260505094542 71 197 10.4 21.7 0.00 0.00 0.00 76 998.9
20260505094027 71 186 10.4 21.7 0.00 0.00 0.00 75 998.9
20260505093529 72 197 12.2 19.1 0.00 0.00 0.00 75 998.9
20260505093037 72 165 10.4 19.1 0.00 0.00 0.00 75 999.0
20260505092528 72 219 12.2 19.1 0.00 0.00 0.00 75 999.0
20260505092027 72 180 11.3 19.1 0.00 0.00 0.00 75 999.1
20260505091607 72 175 12.2 19.1 0.00 0.00 0.00 75 999.1
20260505091027 72 202 10.4 19.1 0.00 0.00 0.00 75 999.1
20260505090529 72 194 11.3 19.1 0.00 0.00 0.00 74 999.2
20260505090053 72 192 10.4 20.9 0.00 0.00 0.00 74 999.2
20260505085527 72 197 12.2 20.9 0.00 0.00 0.00 74 999.3
20260505085032 72 189 11.3 20.9 0.00 0.00 0.00 74 999.2
20260505084543 72 196 10.4 20.9 0.00 0.00 0.00 74 999.3
20260505084029 72 202 10.4 20.0 0.00 0.00 0.00 74 999.2
20260505083526 72 173 11.3 17.4 0.00 0.00 0.00 74 999.3
20260505083048 72 196 9.6 20.0 0.00 0.00 0.00 74 999.3
20260505082532 72 193 12.2 23.5 0.00 0.00 0.00 74 999.5
20260505082027 72 205 11.3 23.5 0.00 0.00 0.00 74 999.7
20260505081543 72 206 11.3 20.0 0.00 0.00 0.00 74 999.6
20260505081027 72 190 10.4 20.0 0.00 0.00 0.00 74 999.6
20260505080533 73 212 9.6 20.0 0.00 0.00 0.00 74 999.6
20260505080047 73 208 9.6 20.9 0.00 0.00 0.00 74 999.7
20260505075531 73 175 11.3 22.6 0.00 0.00 0.00 73 999.7
20260505075031 73 186 13.9 22.6 0.00 0.00 0.00 73 999.7
20260505074541 73 171 11.3 21.7 0.00 0.00 0.00 73 999.7
20260505074030 73 186 13.9 21.7 0.00 0.00 0.00 73 999.8
20260505073529 73 194 10.4 20.0 0.00 0.00 0.00 73 999.8
20260505073047 73 173 11.3 20.0 0.00 0.00 0.00 73 999.9
20260505072528 73 208 10.4 19.1 0.00 0.00 0.00 73 1000.0
20260505072030 73 201 11.3 19.1 0.00 0.00 0.00 73 1000.1
20260505071545 73 168 10.4 24.3 0.00 0.00 0.00 73 1000.2
20260505071027 73 205 11.3 24.3 0.00 0.00 0.00 74 1000.2
20260505070530 72 173 12.2 22.6 0.00 0.00 0.00 74 1000.3
20260505070042 72 206 13.0 22.6 0.00 0.00 0.00 74 1000.3
20260505065526 72 185 11.3 24.3 0.00 0.00 0.00 75 1000.4
20260505065026 72 169 13.0 24.3 0.00 0.00 0.00 74 1000.4
20260505064537 72 163 11.3 23.5 0.00 0.00 0.00 75 1000.4
20260505064027 72 182 11.3 23.5 0.00 0.00 0.00 75 1000.4
20260505063527 72 219 12.2 25.2 0.00 0.00 0.00 74 1000.4
20260505063046 72 154 13.0 25.2 0.00 0.00 0.00 74 1000.5
20260505062526 72 189 13.0 25.2 0.00 0.00 0.00 74 1000.5
20260505062031 72 180 14.8 25.2 0.00 0.00 0.00 74 1000.7
20260505061545 72 188 11.3 25.2 0.00 0.00 0.00 74 1000.7
20260505061031 72 175 13.0 22.6 0.00 0.00 0.00 74 1000.8
20260505060526 72 212 12.2 19.1 0.00 0.00 0.00 74 1000.9
20260505060042 72 165 12.2 19.1 0.00 0.00 0.00 74 1000.9
20260505055528 72 186 12.2 19.1 0.00 0.00 0.00 74 1000.9
20260505055026 72 186 10.4 20.0 0.00 0.00 0.00 74 1001.1
20260505054603 72 160 13.0 20.0 0.00 0.00 0.00 74 1001.1
20260505054028 72 148 9.6 20.9 0.00 0.00 0.00 74 1001.1
20260505053528 72 169 11.3 20.9 0.00 0.00 0.00 74 1001.2
20260505053046 72 185 10.4 20.0 0.00 0.00 0.00 74 1001.1
20260505052527 72 159 11.3 22.6 0.00 0.00 0.00 73 1001.2
20260505052028 72 198 10.4 22.6 0.00 0.00 0.00 73 1001.2
20260505051546 72 178 9.6 17.4 0.00 0.00 0.00 74 1001.3
20260505051028 72 191 11.3 19.1 0.00 0.00 0.00 74 1001.2
20260505050528 72 168 11.3 19.1 0.00 0.00 0.00 73 1001.1
20260505041548 73 148 11.3 18.2 0.00 0.00 0.00 73 1001.6
20260505041026 73 151 7.8 16.5 0.00 0.00 0.00 73 1001.7
20260505040528 73 163 10.4 20.9 0.00 0.00 0.00 73 1001.7
20260505040042 73 146 10.4 20.9 0.00 0.00 0.00 73 1001.7
20260505035526 73 180 9.6 16.5 0.00 0.00 0.00 73 1001.7
20260505035027 73 186 9.6 21.7 0.00 0.00 0.00 73 1001.7
20260505034544 73 168 11.3 21.7 0.00 0.00 0.00 73 1001.7
20260505034027 73 190 11.3 20.9 0.00 0.00 0.00 73 1001.6
20260505033527 73 179 8.7 17.4 0.00 0.00 0.00 73 1001.6
20260505033042 73 174 10.4 17.4 0.00 0.00 0.00 73 1001.6
20260505032527 73 151 9.6 17.4 0.00 0.00 0.00 73 1001.6
20260505032026 73 171 8.7 17.4 0.00 0.00 0.00 73 1001.6
20260505031542 73 198 10.4 16.5 0.00 0.00 0.00 73 1001.6
20260505031028 73 144 8.7 14.8 0.00 0.00 0.00 73 1001.5
20260505030528 73 163 8.7 14.8 0.00 0.00 0.00 73 1001.6
20260505030054 73 173 7.8 13.9 0.00 0.00 0.00 73 1001.6